| time (UTC) | temp F | wind direction | speed MPH | gust MPH | rain 1hr in | rain 24hr in | rain mn in | humidity % | barometer mb |
| 20260505052331 | 53 | 74 | 0.0 | 0.0 | 0.00 | 0.00 | 0.00 | 81 | 1009.7 |
| 20260505051828 | 53 | 74 | 0.0 | 0.0 | 0.00 | 0.00 | 0.00 | 80 | 1009.9 |
| 20260505051326 | 54 | 74 | 0.0 | 0.0 | 0.00 | 0.00 | 0.00 | 80 | 1009.8 |
| 20260505050824 | 54 | 74 | 0.0 | 0.0 | 0.00 | 0.00 | 0.00 | 78 | 1010.0 |
| 20260505050322 | 55 | 74 | 0.0 | 0.0 | 0.00 | 0.00 | 0.00 | 78 | 1009.8 |
| 20260505041752 | 55 | 75 | 0.0 | 0.0 | 0.00 | 0.00 | 0.00 | 74 | 1009.5 |
| 20260505041249 | 56 | 84 | 0.0 | 0.0 | 0.00 | 0.00 | 0.00 | 73 | 1009.5 |
| 20260505040746 | 56 | 84 | 0.0 | 0.0 | 0.00 | 0.00 | 0.00 | 72 | 1009.6 |
| 20260505040244 | 56 | 84 | 0.0 | 0.0 | 0.00 | 0.00 | 0.00 | 71 | 1009.5 |
| 20260505035741 | 56 | 80 | 0.0 | 0.0 | 0.00 | 0.00 | 0.00 | 71 | 1009.4 |
| 20260505035236 | 56 | 80 | 0.0 | 0.0 | 0.00 | 0.00 | 0.00 | 71 | 1009.3 |
| 20260505034733 | 56 | 80 | 0.0 | 0.0 | 0.00 | 0.00 | 0.00 | 69 | 1009.6 |
| 20260505034230 | 56 | 81 | 0.0 | 0.0 | 0.00 | 0.00 | 0.00 | 69 | 1009.4 |
| 20260505033727 | 56 | 80 | 0.0 | 0.0 | 0.00 | 0.00 | 0.00 | 68 | 1009.6 |
| 20260505033225 | 56 | 80 | 0.0 | 0.0 | 0.00 | 0.00 | 0.00 | 70 | 1009.7 |
| 20260505032723 | 56 | 80 | 0.0 | 0.0 | 0.00 | 0.00 | 0.00 | 72 | 1009.6 |
| 20260505032218 | 56 | 80 | 0.0 | 0.0 | 0.00 | 0.00 | 0.00 | 72 | 1009.4 |
| 20260505031716 | 56 | 80 | 0.0 | 0.0 | 0.00 | 0.00 | 0.00 | 70 | 1009.7 |
| 20260505031212 | 56 | 80 | 0.0 | 0.0 | 0.00 | 0.00 | 0.00 | 72 | 1009.8 |
| 20260505030709 | 56 | 81 | 0.0 | 0.0 | 0.00 | 0.00 | 0.00 | 71 | 1009.6 |
| 20260505030205 | 56 | 80 | 0.0 | 0.0 | 0.00 | 0.00 | 0.00 | 71 | 1009.5 |
| 20260505025701 | 56 | 81 | 0.0 | 0.0 | 0.00 | 0.00 | 0.00 | 72 | 1009.7 |
| 20260505025159 | 56 | 80 | 0.0 | 0.0 | 0.00 | 0.00 | 0.00 | 69 | 1009.6 |
| 20260505024657 | 56 | 81 | 0.0 | 0.0 | 0.00 | 0.00 | 0.00 | 69 | 1009.5 |
| 20260505024154 | 56 | 81 | 0.0 | 0.0 | 0.00 | 0.00 | 0.00 | 72 | 1009.4 |
| 20260505023651 | 56 | 81 | 0.0 | 0.0 | 0.00 | 0.00 | 0.00 | 73 | 1009.7 |
| 20260505023149 | 57 | 81 | 0.0 | 0.0 | 0.00 | 0.00 | 0.00 | 72 | 1009.8 |
| 20260505022646 | 57 | 81 | 0.0 | 0.0 | 0.00 | 0.00 | 0.00 | 71 | 1009.7 |
| 20260505022143 | 57 | 81 | 0.0 | 0.0 | 0.00 | 0.00 | 0.00 | 70 | 1009.6 |
| 20260505021639 | 58 | 81 | 0.0 | 0.0 | 0.00 | 0.00 | 0.00 | 69 | 1009.9 |
| 20260505021136 | 58 | 81 | 0.0 | 0.0 | 0.00 | 0.00 | 0.00 | 66 | 1009.7 |
| 20260505020632 | 58 | 81 | 0.0 | 0.0 | 0.00 | 0.00 | 0.00 | 65 | 1009.8 |
| 20260505020128 | 59 | 81 | 0.0 | 0.0 | 0.00 | 0.00 | 0.00 | 64 | 1009.8 |
| 20260505015625 | 59 | 81 | 0.0 | 0.0 | 0.00 | 0.00 | 0.00 | 62 | 1009.6 |
| 20260505015122 | 59 | 81 | 0.0 | 0.0 | 0.00 | 0.00 | 0.00 | 62 | 1009.9 |
| 20260505014619 | 60 | 80 | 0.0 | 0.0 | 0.00 | 0.00 | 0.00 | 60 | 1009.6 |
| 20260505014116 | 60 | 80 | 0.0 | 0.0 | 0.00 | 0.00 | 0.00 | 58 | 1009.6 |
| 20260505013613 | 60 | 81 | 0.0 | 0.0 | 0.00 | 0.00 | 0.00 | 60 | 1009.3 |
| 20260505013110 | 61 | 81 | 0.0 | 0.0 | 0.00 | 0.00 | 0.00 | 59 | 1009.6 |
| 20260505012609 | 61 | 81 | 0.0 | 0.0 | 0.00 | 0.00 | 0.00 | 56 | 1009.7 |
| 20260505012105 | 61 | 81 | 0.0 | 0.0 | 0.00 | 0.00 | 0.00 | 56 | 1009.5 |
| 20260505011600 | 61 | 82 | 0.0 | 0.0 | 0.00 | 0.00 | 0.00 | 57 | 1009.4 |
| 20260505011058 | 62 | 70 | 0.0 | 0.0 | 0.00 | 0.00 | 0.00 | 55 | 1009.4 |
| 20260505010553 | 62 | 74 | 0.0 | 0.0 | 0.00 | 0.00 | 0.00 | 55 | 1009.2 |
| 20260505010050 | 61 | 71 | 0.0 | 0.0 | 0.00 | 0.00 | 0.00 | 56 | 1009.1 |
| 20260505005546 | 61 | 69 | 0.0 | 1.0 | 0.00 | 0.00 | 0.00 | 55 | 1009.3 |
| 20260505005043 | 61 | 90 | 0.0 | 0.0 | 0.00 | 0.00 | 0.00 | 58 | 1009.0 |
| 20260505004535 | 61 | 75 | 0.0 | 0.0 | 0.00 | 0.00 | 0.00 | 58 | 1009.1 |
| 20260505004032 | 62 | 74 | 0.0 | 0.0 | 0.00 | 0.00 | 0.00 | 55 | 1009.1 |
| 20260505003529 | 62 | 90 | 0.0 | 0.0 | 0.00 | 0.00 | 0.00 | 56 | 1009.0 |
| 20260505003026 | 62 | 90 | 0.0 | 0.0 | 0.00 | 0.00 | 0.00 | 57 | 1008.8 |
| 20260505002526 | 63 | 90 | 0.0 | 0.0 | 0.00 | 0.00 | 0.00 | 58 | 1008.9 |
| 20260505002026 | 63 | 89 | 0.0 | 0.0 | 0.00 | 0.00 | 0.00 | 53 | 1009.1 |
| 20260505001523 | 64 | 90 | 0.0 | 0.0 | 0.00 | 0.00 | 0.00 | 53 | 1008.9 |
| 20260505001020 | 65 | 90 | 0.0 | 0.0 | 0.00 | 0.00 | 0.00 | 51 | 1008.8 |
| 20260505000517 | 65 | 83 | 0.0 | 0.0 | 0.00 | 0.00 | 0.00 | 48 | 1008.9 |
| 20260505000015 | 66 | 84 | 0.0 | 0.0 | 0.00 | 0.00 | 0.00 | 48 | 1008.7 |
| 20260504235511 | 66 | 56 | 0.0 | 0.0 | 0.00 | 0.00 | 0.00 | 48 | 1008.7 |
| 20260504235008 | 66 | 79 | 0.0 | 0.0 | 0.00 | 0.00 | 0.00 | 48 | 1008.6 |
| 20260504234505 | 67 | 61 | 0.0 | 1.0 | 0.00 | 0.00 | 0.00 | 47 | 1008.8 |
| 20260504234002 | 67 | 76 | 0.0 | 0.0 | 0.00 | 0.00 | 0.00 | 47 | 1008.6 |
| 20260504233457 | 67 | 75 | 0.0 | 0.0 | 0.00 | 0.00 | 0.00 | 47 | 1008.8 |
| 20260504232954 | 67 | 80 | 0.0 | 0.0 | 0.00 | 0.00 | 0.00 | 46 | 1008.7 |
| 20260504232451 | 68 | 103 | 0.0 | 0.0 | 0.00 | 0.00 | 0.00 | 46 | 1008.8 |
| 20260504231949 | 68 | 106 | 0.0 | 0.0 | 0.00 | 0.00 | 0.00 | 47 | 1008.8 |
| 20260504231445 | 69 | 81 | 0.0 | 0.0 | 0.00 | 0.00 | 0.00 | 45 | 1008.8 |
| 20260504230941 | 69 | 44 | 0.0 | 1.0 | 0.00 | 0.00 | 0.00 | 42 | 1008.6 |
| 20260504230438 | 69 | 87 | 0.0 | 0.0 | 0.00 | 0.00 | 0.00 | 46 | 1008.7 |
| 20260504225937 | 69 | 118 | 0.0 | 0.0 | 0.00 | 0.00 | 0.00 | 43 | 1008.8 |
| 20260504225433 | 70 | 115 | 1.0 | 1.0 | 0.00 | 0.00 | 0.00 | 41 | 1008.7 |
| 20260504224931 | 70 | 140 | 3.0 | 3.0 | 0.00 | 0.00 | 0.00 | 43 | 1008.6 |
| 20260504224427 | 70 | 72 | 1.0 | 2.0 | 0.00 | 0.00 | 0.00 | 43 | 1008.7 |
| 20260504223924 | 70 | 90 | 0.0 | 1.0 | 0.00 | 0.00 | 0.00 | 45 | 1008.7 |
| 20260504223420 | 70 | 112 | 0.0 | 0.0 | 0.00 | 0.00 | 0.00 | 40 | 1008.6 |
| 20260504222916 | 71 | 127 | 1.0 | 1.0 | 0.00 | 0.00 | 0.00 | 41 | 1008.8 |
| 20260504222414 | 71 | 132 | 1.0 | 1.0 | 0.00 | 0.00 | 0.00 | 40 | 1008.5 |
| 20260504221911 | 71 | 118 | 1.0 | 2.0 | 0.00 | 0.00 | 0.00 | 40 | 1008.6 |
| 20260504221408 | 71 | 108 | 0.0 | 0.0 | 0.00 | 0.00 | 0.00 | 41 | 1008.7 |
| 20260504220905 | 71 | 91 | 0.0 | 0.0 | 0.00 | 0.00 | 0.00 | 40 | 1008.9 |
| 20260504220402 | 71 | 134 | 1.0 | 1.0 | 0.00 | 0.00 | 0.00 | 38 | 1008.8 |
| 20260504215859 | 72 | 121 | 1.0 | 1.0 | 0.00 | 0.00 | 0.00 | 39 | 1008.9 |
| 20260504215355 | 72 | 65 | 0.0 | 0.0 | 0.00 | 0.00 | 0.00 | 40 | 1009.1 |
| 20260504214851 | 72 | 144 | 1.0 | 3.0 | 0.00 | 0.00 | 0.00 | 39 | 1008.9 |
| 20260504214348 | 72 | 117 | 1.0 | 1.0 | 0.00 | 0.00 | 0.00 | 37 | 1008.9 |
| 20260504213845 | 72 | 47 | 1.0 | 2.0 | 0.00 | 0.00 | 0.00 | 39 | 1008.9 |
| 20260504213341 | 73 | 151 | 4.0 | 5.0 | 0.00 | 0.00 | 0.00 | 37 | 1008.9 |
| 20260504212838 | 73 | 129 | 1.0 | 1.0 | 0.00 | 0.00 | 0.00 | 37 | 1008.9 |
| 20260504212334 | 73 | 93 | 0.0 | 1.0 | 0.00 | 0.00 | 0.00 | 37 | 1009.1 |
| 20260504211832 | 73 | 88 | 0.0 | 1.0 | 0.00 | 0.00 | 0.00 | 37 | 1009.0 |
| 20260504211328 | 73 | 153 | 2.0 | 2.0 | 0.00 | 0.00 | 0.00 | 36 | 1008.8 |
| 20260504210826 | 73 | 132 | 1.0 | 2.0 | 0.00 | 0.00 | 0.00 | 36 | 1008.8 |
| 20260504210323 | 72 | 61 | 0.0 | 1.0 | 0.00 | 0.00 | 0.00 | 37 | 1008.9 |
| 20260504205820 | 72 | 69 | 0.0 | 0.0 | 0.00 | 0.00 | 0.00 | 36 | 1009.1 |
| 20260504205317 | 73 | 123 | 0.0 | 0.0 | 0.00 | 0.00 | 0.00 | 37 | 1009.0 |
| 20260504204815 | 73 | 128 | 2.0 | 2.0 | 0.00 | 0.00 | 0.00 | 35 | 1008.9 |
| 20260504204314 | 73 | 160 | 2.0 | 2.0 | 0.00 | 0.00 | 0.00 | 37 | 1009.1 |
| 20260504203813 | 72 | 81 | 1.0 | 1.0 | 0.00 | 0.00 | 0.00 | 36 | 1009.0 |
| 20260504203309 | 72 | 143 | 2.0 | 3.0 | 0.00 | 0.00 | 0.00 | 36 | 1009.2 |
| 20260504202804 | 73 | 67 | 0.0 | 0.0 | 0.00 | 0.00 | 0.00 | 38 | 1009.1 |
| 20260504202304 | 72 | 147 | 2.0 | 2.0 | 0.00 | 0.00 | 0.00 | 37 | 1009.3 |
| 20260504201759 | 72 | 95 | 0.0 | 1.0 | 0.00 | 0.00 | 0.00 | 39 | 1009.3 |
| 20260504201256 | 72 | 160 | 2.0 | 3.0 | 0.00 | 0.00 | 0.00 | 38 | 1009.2 |
| 20260504200754 | 72 | 64 | 0.0 | 1.0 | 0.00 | 0.00 | 0.00 | 40 | 1009.2 |
| 20260504200249 | 72 | 125 | 2.0 | 2.0 | 0.00 | 0.00 | 0.00 | 35 | 1009.5 |
| 20260504195746 | 72 | 111 | 1.0 | 1.0 | 0.00 | 0.00 | 0.00 | 38 | 1009.5 |
| 20260504195242 | 72 | 191 | 3.0 | 3.0 | 0.00 | 0.00 | 0.00 | 37 | 1009.8 |
| 20260504194739 | 71 | 130 | 1.0 | 1.0 | 0.00 | 0.00 | 0.00 | 44 | 1009.7 |
| 20260504194235 | 72 | 109 | 1.0 | 1.0 | 0.00 | 0.00 | 0.00 | 36 | 1009.8 |
| 20260504193732 | 72 | 177 | 2.0 | 3.0 | 0.00 | 0.00 | 0.00 | 38 | 1010.0 |
| 20260504193229 | 72 | 88 | 1.0 | 1.0 | 0.00 | 0.00 | 0.00 | 40 | 1009.7 |
| 20260504192727 | 73 | 94 | 1.0 | 2.0 | 0.00 | 0.00 | 0.00 | 37 | 1010.2 |
| 20260504192225 | 73 | 118 | 1.0 | 2.0 | 0.00 | 0.00 | 0.00 | 37 | 1010.2 |
| 20260504191724 | 72 | 59 | 0.0 | 1.0 | 0.00 | 0.00 | 0.00 | 38 | 1009.9 |
| 20260504191220 | 72 | 35 | 2.0 | 2.0 | 0.00 | 0.00 | 0.00 | 36 | 1010.0 |
| 20260504190715 | 71 | 107 | 2.0 | 3.0 | 0.00 | 0.00 | 0.00 | 37 | 1010.0 |
| 20260504190212 | 71 | 307 | 3.0 | 5.0 | 0.00 | 0.00 | 0.00 | 37 | 1010.3 |
| 20260504185709 | 72 | 326 | 3.0 | 8.0 | 0.00 | 0.00 | 0.00 | 38 | 1010.5 |
| 20260504185206 | 71 | 56 | 0.0 | 0.0 | 0.00 | 0.00 | 0.00 | 41 | 1010.4 |
| 20260504184702 | 72 | 118 | 1.0 | 2.0 | 0.00 | 0.00 | 0.00 | 38 | 1010.5 |
| 20260504184157 | 71 | 81 | 0.0 | 1.0 | 0.00 | 0.00 | 0.00 | 43 | 1010.2 |
| 20260504183654 | 70 | 145 | 1.0 | 1.0 | 0.00 | 0.00 | 0.00 | 37 | 1010.4 |
| 20260504183151 | 71 | 117 | 0.0 | 1.0 | 0.00 | 0.00 | 0.00 | 38 | 1010.3 |
| 20260504182649 | 71 | 164 | 5.0 | 5.0 | 0.00 | 0.00 | 0.00 | 37 | 1010.6 |
| 20260504182146 | 70 | 96 | 0.0 | 1.0 | 0.00 | 0.00 | 0.00 | 38 | 1010.9 |
| 20260504181643 | 69 | 131 | 3.0 | 3.0 | 0.00 | 0.00 | 0.00 | 38 | 1010.8 |
| 20260504181141 | 70 | 164 | 5.0 | 5.0 | 0.00 | 0.00 | 0.00 | 38 | 1011.1 |
| 20260504180640 | 70 | 177 | 4.0 | 5.0 | 0.00 | 0.00 | 0.00 | 40 | 1010.9 |
| 20260504180138 | 69 | 89 | 1.0 | 1.0 | 0.00 | 0.00 | 0.00 | 38 | 1011.1 |
| 20260504175635 | 69 | 137 | 3.0 | 3.0 | 0.00 | 0.00 | 0.00 | 39 | 1011.2 |
| 20260504175131 | 69 | 179 | 3.0 | 5.0 | 0.00 | 0.00 | 0.00 | 38 | 1011.4 |
| 20260504174630 | 70 | 130 | 1.0 | 1.0 | 0.00 | 0.00 | 0.00 | 39 | 1011.3 |
| 20260504174126 | 70 | 153 | 2.0 | 3.0 | 0.00 | 0.00 | 0.00 | 39 | 1011.5 |
| 20260504173623 | 70 | 102 | 0.0 | 1.0 | 0.00 | 0.00 | 0.00 | 38 | 1011.2 |
| 20260504173121 | 69 | 76 | 0.0 | 1.0 | 0.00 | 0.00 | 0.00 | 39 | 1011.3 |
| 20260504172617 | 69 | 70 | 0.0 | 1.0 | 0.00 | 0.00 | 0.00 | 39 | 1011.5 |
| 20260504172114 | 69 | 92 | 0.0 | 1.0 | 0.00 | 0.00 | 0.00 | 39 | 1011.4 |
| 20260504171610 | 69 | 298 | 2.0 | 2.0 | 0.00 | 0.00 | 0.00 | 38 | 1011.7 |
| 20260504171108 | 69 | 117 | 1.0 | 2.0 | 0.00 | 0.00 | 0.00 | 39 | 1011.7 |
| 20260504170603 | 68 | 127 | 1.0 | 1.0 | 0.00 | 0.00 | 0.00 | 39 | 1011.6 |
| 20260504150947 | 64 | 127 | 1.0 | 1.0 | 0.00 | 0.00 | 0.00 | 44 | 1013.0 |
| 20260504150444 | 65 | 87 | 0.0 | 1.0 | 0.00 | 0.00 | 0.00 | 45 | 1013.0 |
| 20260504140910 | 61 | 149 | 1.0 | 2.0 | 0.00 | 0.00 | 0.00 | 57 | 1013.3 |
| 20260504140406 | 61 | 111 | 1.0 | 1.0 | 0.00 | 0.00 | 0.00 | 54 | 1013.1 |
| 20260504130331 | 57 | 153 | 1.0 | 1.0 | 0.00 | 0.00 | 0.00 | 68 | 1013.7 |
| 20260504120254 | 47 | 110 | 0.0 | 0.0 | 0.00 | 0.00 | 0.00 | 98 | 1013.9 |
| 20260504110218 | 37 | 109 | 0.0 | 0.0 | 0.00 | 0.00 | 0.00 | 99 | 1014.0 |
| 20260504100142 | 34 | 109 | 0.0 | 0.0 | 0.00 | 0.00 | 0.00 | 98 | 1014.4 |
| 20260504090105 | 35 | 108 | 0.0 | 0.0 | 0.00 | 0.00 | 0.00 | 98 | 1014.3 |
| 20260504081535 | 35 | 109 | 0.0 | 0.0 | 0.00 | 0.00 | 0.00 | 97 | 1014.3 |
| 20260504081031 | 35 | 109 | 0.0 | 0.0 | 0.00 | 0.00 | 0.00 | 97 | 1014.2 |
| 20260504080527 | 35 | 109 | 0.0 | 0.0 | 0.00 | 0.00 | 0.00 | 97 | 1014.2 |